Regional Weather Roundup
Issued by NWS Albany, NY

Home | Current Version | Previous Version | Graphics & Text | Print | Product List | Glossary Off
Versions: 1 2 3 4 5 6 7 8 9 10 11 12 13 14 15 16 17 18 19 20 21 22 23 24 25 26 27 28 29 30 31 32 33 34 35 36 37 38 39 40 41 42 43 44 45 46 47 48 49 50

000
ASUS41 KALY 140610
RWRALY

NEW YORK STATE HOURLY WEATHER ROUNDUP
NATIONAL WEATHER SERVICE ALBANY NY
200 AM EDT SUN SEP 14 2014

NOTE: "FAIR" INDICATES FEW OR NO CLOUDS BELOW 12,000 FEET WITH NO
SIGNIFICANT WEATHER AND/OR NO OBSTRUCTIONS TO VISIBILITY.

NYZ032-033-038>043-046>054-057>066-NYZ062>081-140700-
EAST


CITY           SKY/WX    TMP DP  RH WIND       PRES   REMARKS
ALBANY         PTCLDY    51  47  86 NW9       30.21S
GLENS FALLS    CLOUDY    48  46  93 CALM      30.21R
POUGHKEEPSIE   CLEAR     51  49  92 CALM      30.18S FOG
NEWBURGH       CLEAR     50  48  93 CALM      30.19
MONTGOMERY     CLEAR     51  45  79 N5        30.18F
WHITE PLAINS   CLEAR     54  49  83 NW9       30.16R
ISLIP          CLEAR     58  53  84 N10       30.13S
NEW YORK CITY  CLEAR     60  48  64 NW14      30.17R
CENTRAL PARK   CLEAR     57  48  72 MISG      30.20R
$$

NYZ005>009-017-018-044>046-055-056-140700-
CENTRAL


CITY           SKY/WX    TMP DP  RH WIND       PRES   REMARKS
FULTON         CLEAR     47  41  80 CALM      30.29R
SYRACUSE       CLOUDY    52  43  71 NW8       30.28S
ROME           CLOUDY    49  47  93 NW6       30.29R
ELMIRA         CLEAR     45  44  97 CALM      30.28S
BINGHAMTON     CLOUDY    49  46  90 NW6       30.25S
MONTICELLO     CLEAR     46  45  93 NW10      30.22S
$$

NYZ026>034-041>043-140700-
NORTH


CITY           SKY/WX    TMP DP  RH WIND       PRES   REMARKS
WATERTOWN      CLOUDY    49  38  65 NW5       30.29R
FORT DRUM      NOT AVBL
MASSENA        CLOUDY    46  41  82 W6G16     30.27S
SARANAC LAKE   CLOUDY    39  38  96 VRB5      30.22R
PLATTSBURGH    CLOUDY    48  41  76 CALM      30.23R
$$

NYZ001>004-010>016-019>021-140700-
WEST


CITY           SKY/WX    TMP DP  RH WIND       PRES   REMARKS
NIAGARA FALLS  CLEAR     45  41  86 N5        30.32R
BUFFALO        PTCLDY    47  42  83 N6        30.31S
DUNKIRK        CLOUDY    54  45  71 N9        30.31R
JAMESTOWN      CLOUDY    50  45  81 NW5       30.30S
WELLSVILLE     CLOUDY    48  43  82 N6        30.30S
ROCHESTER      PTCLDY    48  44  86 CALM      30.31R
PENN YAN       CLEAR     50  45  83 CALM      30.29S
$$

             KEY
       WCI = WIND CHILL INDEX
       VSB = VISIBILITY
       HX  = HEAT INDEX
$$



USA.gov is the U.S. government's official web portal to all federal, state and local government web resources and services.